• In Hungary
  • List of Countries
  • For 7 days
  • Water Temperature
  • Satellite Maps
  • Weather Map
  • News
  • Weather Widgets
  • user-avatar
    Login

    Hourly Weather Kopanovka

    Today, 22 October, Monday

    Time Temperature Precipitation Wind Pressure Humidity
    00:00 +14°C° 0 mm 5 mps 766 mmHg 66%
    01:00 +14°C° 0 mm 5 mps 766 mmHg 67%
    02:00 +13°C° 0 mm 5 mps 766 mmHg 69%
    03:00 +13°C° 0 mm 5 mps 766 mmHg 71%
    04:00 +13°C° 0 mm 5 mps 766 mmHg 72%
    05:00 +13°C° 0 mm 4 mps 766 mmHg 73%
    06:00 +12°C° 0 mm 4 mps 766 mmHg 74%
    07:00 +13°C° 0 mm 5 mps 766 mmHg 67%
    08:00 +14°C° 0 mm 5 mps 766 mmHg 60%
    09:00 +16°C° 0 mm 6 mps 767 mmHg 53%
    10:00 +17°C° 0 mm 6 mps 767 mmHg 46%
    11:00 +19°C° 0 mm 6 mps 766 mmHg 40%
    12:00 +21°C° 0 mm 6 mps 766 mmHg 33%
    13:00 +21°C° 0 mm 6 mps 766 mmHg 32%
    14:00 +21°C° 0 mm 6 mps 766 mmHg 31%
    15:00 +22°C° 0 mm 6 mps 766 mmHg 30%
    16:00 +20°C° 0 mm 5 mps 766 mmHg 33%
    17:00 +19°C° 0 mm 5 mps 766 mmHg 36%
    18:00 +18°C° 0 mm 4 mps 766 mmHg 39%
    19:00 +17°C° 0 mm 4 mps 766 mmHg 41%
    20:00 +17°C° 0 mm 4 mps 766 mmHg 42%
    21:00 +15°C° 0 mm 4 mps 766 mmHg 43%
    22:00 +15°C° 0 mm 4 mps 766 mmHg 45%
    23:00 +14°C° 0 mm 4 mps 765 mmHg 46%

    Tomorrow, 23 October, Tuesday

    Time Temperature Precipitation Wind Pressure Humidity
    00:00 +14°C° 0 mm 4 mps 765 mmHg 48%
    01:00 +13°C° 0 mm 4 mps 765 mmHg 50%
    02:00 +13°C° 0 mm 3 mps 765 mmHg 51%
    03:00 +12°C° 0 mm 3 mps 765 mmHg 53%
    04:00 +13°C° 0 mm 3 mps 764 mmHg 54%
    05:00 +13°C° 0 mm 3 mps 764 mmHg 55%
    06:00 +13°C° 0 mm 3 mps 764 mmHg 56%
    07:00 +14°C° 0 mm 3 mps 763 mmHg 54%
    08:00 +14°C° 0 mm 4 mps 763 mmHg 52%
    09:00 +15°C° 0 mm 4 mps 763 mmHg 50%
    10:00 +18°C° 0 mm 4 mps 763 mmHg 45%
    11:00 +19°C° 0 mm 4 mps 762 mmHg 41%
    12:00 +21°C° 0 mm 5 mps 762 mmHg 37%
    13:00 +21°C° 0 mm 5 mps 761 mmHg 38%
    14:00 +21°C° 0 mm 5 mps 761 mmHg 40%
    15:00 +21°C° 0 mm 5 mps 760 mmHg 42%
    16:00 +20°C° 0 mm 4 mps 760 mmHg 47%
    17:00 +19°C° 0 mm 4 mps 760 mmHg 52%
    18:00 +18°C° 0 mm 3 mps 760 mmHg 57%
    19:00 +18°C° 0 mm 3 mps 760 mmHg 60%
    20:00 +17°C° 0 mm 3 mps 760 mmHg 63%
    21:00 +16°C° 0 mm 3 mps 760 mmHg 66%
    22:00 +14°C° 0 mm 3 mps 760 mmHg 69%
    23:00 +15°C° 0 mm 2 mps 759 mmHg 71%

    Day after tomorrow, 24 October, Wednesday

    Time Temperature Precipitation Wind Pressure Humidity
    00:00 +14°C° 0 mm 2 mps 759 mmHg 74%
    01:00 +14°C° 0 mm 2 mps 759 mmHg 75%
    02:00 +14°C° 0 mm 2 mps 759 mmHg 76%
    03:00 +13°C° 0 mm 2 mps 759 mmHg 77%
    04:00 +13°C° 0 mm 2 mps 759 mmHg 77%
    05:00 +13°C° 0 mm 2 mps 758 mmHg 76%
    06:00 +13°C° 0 mm 2 mps 758 mmHg 76%
    07:00 +13°C° 0 mm 3 mps 758 mmHg 71%
    08:00 +14°C° 0 mm 4 mps 758 mmHg 66%
    09:00 +15°C° 0 mm 4 mps 758 mmHg 61%
    10:00 +16°C° 0.1 mm 5 mps 758 mmHg 61%
    11:00 +17°C° 0.1 mm 6 mps 757 mmHg 60%
    12:00 +19°C° 0.1 mm 6 mps 757 mmHg 60%
    13:00 +19°C° 0 mm 6 mps 756 mmHg 60%
    14:00 +19°C° 0 mm 6 mps 756 mmHg 60%
    15:00 +19°C° 0 mm 5 mps 755 mmHg 60%
    16:00 +19°C° 0.3 mm 5 mps 755 mmHg 63%
    17:00 +18°C° 0.3 mm 4 mps 755 mmHg 66%
    18:00 +17°C° 0.3 mm 4 mps 754 mmHg 69%
    19:00 +16°C° 0.1 mm 5 mps 754 mmHg 68%
    20:00 +16°C° 0.1 mm 5 mps 754 mmHg 67%
    21:00 +16°C° 0.1 mm 6 mps 753 mmHg 65%
    22:00 +15°C° 0 mm 5 mps 753 mmHg 64%
    23:00 +14°C° 0 mm 5 mps 752 mmHg 62%

    25 October, Thursday

    Time Temperature Precipitation Wind Pressure Humidity
    00:00 +14°C° 0 mm 5 mps 751 mmHg 61%
    01:00 +13°C° 0 mm 4 mps 751 mmHg 61%
    02:00 +13°C° 0 mm 4 mps 751 mmHg 60%
    03:00 +12°C° 0 mm 3 mps 750 mmHg 60%
    04:00 +12°C° 0 mm 3 mps 750 mmHg 62%
    05:00 +12°C° 0 mm 3 mps 750 mmHg 64%
    06:00 +12°C° 0 mm 3 mps 749 mmHg 66%
    07:00 +13°C° 0 mm 3 mps 749 mmHg 65%
    08:00 +16°C° 0 mm 3 mps 749 mmHg 64%
    09:00 +17°C° 0 mm 2 mps 748 mmHg 63%
    10:00 +18°C° 0 mm 3 mps 748 mmHg 59%
    11:00 +19°C° 0 mm 3 mps 748 mmHg 56%
    12:00 +20°C° 0 mm 3 mps 748 mmHg 52%
    13:00 +20°C° 0 mm 4 mps 748 mmHg 53%
    14:00 +20°C° 0 mm 5 mps 748 mmHg 53%
    15:00 +20°C° 0 mm 7 mps 748 mmHg 54%
    16:00 +17°C° 0 mm 7 mps 749 mmHg 56%
    17:00 +16°C° 0 mm 7 mps 749 mmHg 58%
    18:00 +15°C° 0 mm 7 mps 750 mmHg 60%
    19:00 +14°C° 0 mm 7 mps 750 mmHg 58%
    20:00 +12°C° 0 mm 7 mps 751 mmHg 56%
    21:00 +11°C° 0 mm 8 mps 751 mmHg 54%
    22:00 +11°C° 0 mm 7 mps 752 mmHg 54%
    23:00 +11°C° 0 mm 7 mps 752 mmHg 54%

    26 October, Friday

    Time Temperature Precipitation Wind Pressure Humidity
    00:00 +11°C° 0 mm 7 mps 753 mmHg 53%
    01:00 +11°C° 0 mm 7 mps 753 mmHg 54%
    02:00 +11°C° 0 mm 7 mps 753 mmHg 54%
    03:00 +11°C° 0 mm 7 mps 754 mmHg 55%
    04:00 +10°C° 0 mm 7 mps 754 mmHg 55%
    05:00 +10°C° 0 mm 7 mps 755 mmHg 56%
    06:00 +10°C° 0 mm 7 mps 755 mmHg 56%
    07:00 +10°C° 0 mm 7 mps 756 mmHg 55%
    08:00 +11°C° 0 mm 7 mps 756 mmHg 53%
    09:00 +11°C° 0 mm 7 mps 757 mmHg 52%
    10:00 +11°C° 0 mm 7 mps 757 mmHg 49%
    11:00 +12°C° 0 mm 7 mps 757 mmHg 47%
    12:00 +12°C° 0 mm 8 mps 758 mmHg 44%
    13:00 +12°C° 0 mm 8 mps 758 mmHg 42%
    14:00 +12°C° 0 mm 8 mps 758 mmHg 40%
    15:00 +12°C° 0 mm 8 mps 758 mmHg 38%
    16:00 +11°C° 0 mm 7 mps 759 mmHg 39%
    17:00 +10°C° 0 mm 7 mps 760 mmHg 40%
    18:00 +10°C° 0 mm 7 mps 761 mmHg 41%
    19:00 +9°C° 0 mm 6 mps 761 mmHg 43%
    20:00 +8°C° 0 mm 5 mps 762 mmHg 45%
    21:00 +8°C° 0 mm 4 mps 762 mmHg 47%
    22:00 +7°C° 0 mm 4 mps 763 mmHg 49%
    23:00 +7°C° 0 mm 4 mps 763 mmHg 51%

    27 October, Saturday

    Time Temperature Precipitation Wind Pressure Humidity
    00:00 +7°C° 0 mm 4 mps 763 mmHg 53%
    01:00 +7°C° 0 mm 4 mps 764 mmHg 54%
    02:00 +6°C° 0 mm 4 mps 764 mmHg 56%
    03:00 +6°C° 0 mm 4 mps 764 mmHg 57%
    04:00 +6°C° 0 mm 4 mps 765 mmHg 61%
    05:00 +7°C° 0 mm 3 mps 766 mmHg 65%
    06:00 +5°C° 0 mm 3 mps 766 mmHg 69%
    07:00 +7°C° 0 mm 3 mps 767 mmHg 67%
    08:00 +8°C° 0 mm 3 mps 767 mmHg 64%
    09:00 +9°C° 0 mm 3 mps 768 mmHg 62%
    10:00 +10°C° 0 mm 4 mps 768 mmHg 56%
    11:00 +11°C° 0 mm 4 mps 768 mmHg 51%
    12:00 +12°C° 0 mm 4 mps 768 mmHg 46%
    13:00 +13°C° 0 mm 4 mps 768 mmHg 43%
    14:00 +13°C° 0 mm 5 mps 768 mmHg 41%
    15:00 +13°C° 0 mm 5 mps 768 mmHg 39%
    16:00 +12°C° 0 mm 4 mps 769 mmHg 42%
    17:00 +12°C° 0 mm 3 mps 769 mmHg 45%
    18:00 +12°C° 0 mm 2 mps 770 mmHg 49%
    19:00 +11°C° 0 mm 3 mps 770 mmHg 51%
    20:00 +10°C° 0 mm 3 mps 770 mmHg 54%
    21:00 +10°C° 0 mm 3 mps 770 mmHg 56%
    22:00 +10°C° 0 mm 3 mps 771 mmHg 59%
    23:00 +10°C° 0 mm 3 mps 771 mmHg 62%

    28 October, Sunday

    Time Temperature Precipitation Wind Pressure Humidity
    00:00 +10°C° 0 mm 3 mps 771 mmHg 65%
    01:00 +10°C° 0 mm 3 mps 771 mmHg 67%
    02:00 +10°C° 0 mm 3 mps 771 mmHg 70%
    03:00 +10°C° 0 mm 3 mps 771 mmHg 73%
    04:00 +10°C° 0 mm 4 mps 772 mmHg 73%
    05:00 +8°C° 0 mm 4 mps 772 mmHg 74%
    06:00 +8°C° 0 mm 4 mps 772 mmHg 74%
    07:00 +11°C° 0 mm 4 mps 772 mmHg 68%
    08:00 +12°C° 0 mm 4 mps 773 mmHg 62%
    09:00 +13°C° 0 mm 5 mps 773 mmHg 56%
    10:00 +15°C° 0 mm 5 mps 773 mmHg 53%
    11:00 +16°C° 0 mm 5 mps 773 mmHg 50%
    12:00 +17°C° 0 mm 5 mps 773 mmHg 46%
    13:00 +19°C° 0 mm 5 mps 773 mmHg 45%
    14:00 +19°C° 0 mm 5 mps 772 mmHg 44%
    15:00 +19°C° 0 mm 5 mps 772 mmHg 43%
    16:00 +18°C° 0 mm 4 mps 772 mmHg 46%
    17:00 +17°C° 0 mm 4 mps 772 mmHg 49%
    18:00 +14°C° 0 mm 4 mps 772 mmHg 51%
    19:00 +14°C° 0 mm 4 mps 772 mmHg 56%
    20:00 +14°C° 0 mm 4 mps 772 mmHg 60%
    21:00 +13°C° 0 mm 5 mps 772 mmHg 65%
    22:00 +13°C° 0 mm 4 mps 772 mmHg 70%
    23:00 +12°C° 0 mm 4 mps 772 mmHg 76%
    Show more